Location: Wiesbaden
(50.0830°N, 8.2500°E)
Time: 18:09:39
(UTC+01:00)

ISS - Pass Details

Date: 23 January 2020
Orbit: 415 x 421 km, 51.6° (Epoch: 18 January)

Event Time Altitude Azimuth Distance (km) Brightness Sun altitude
Rises 19:10:24 0° 234° (SW) 2,358 1.1 -19.8°
Reaches altitude 10° 19:12:31 10° 229° (SW) 1,496 -0.2 -20.1°
Enters shadow 19:15:21 45° 182° (S) 578 -3.1 -20.6°
